Content
SEND FEEDBACK

Daily
Averages
Monthly
Summary
United Kingdom

BELFAST, NORTHERN IRELAND


Home > Europe > United Kingdom > Northern Ireland
Elevation: 16 feet     Latitude: 54 36N     Longitude: 005 53W

WEATHER
 
SELECT A DAY
Number of Records: 191,794;   Date Range: 7/1/96 - 9/20/14
 
SHARE

PRINT THIS DATA

[ ← Previous Day ]
WEATHER ALMANAC - APRIL 1, 2013
[ Next Day → ]
[ °C ]   °F
Weather ElementAverageHighLow
Temperature38.9 °F41 °F (4:20 pm)35.6 °F (7:20 am)
Dewpoint25.4 °F26.6 °F (8:20 am)24.8 °F (6:50 am)
Humidity58.6 %70 % (8:20 am)53 % (4:20 pm)
Barometer29.95 in29.98 in (8:20 pm)29.92 in (6:50 am)
Wind Speed13.7 mph17.3 mph (1:20 pm)
Wind Gust25.3 mph (6:50 am)
Weather ElementAverage
Visibility6.2 mi
Wind DirectionESE (109 °)

Weather ElementTotal
Precipitation---
Heating Degree Days26.7 (Base 65)
Averaged from 29 records on April 1, 2013
WEATHER CONDITIONS BREAKOUT
WIND DIRECTION BREAKOUT
WEATHER BY HOUR - APRIL 1, 2013
[ °C ]   °F
Local TimeTemperatureDewpointHumidityBarometerVisibilityWind DirectionWind SpeedGust SpeedPrecipitationEventsConditions
6:50 AM37.4 °F24.8 °F60 %29.92 in6.2 miESE (110°)13.8 mph25.3 mphMostly Cloudy
7:20 AM35.6 °F24.8 °F65 %29.92 in6.2 miESE (110°)15.0 mphMostly Cloudy
7:50 AM37.4 °F24.8 °F60 %29.92 in6.2 miESE (120°)13.8 mphMostly Cloudy
8:20 AM35.6 °F26.6 °F70 %29.92 in6.2 miESE (110°)15.0 mphMostly Cloudy
8:50 AM37.4 °F24.8 °F60 %29.92 in6.2 miESE (110°)15.0 mphMostly Cloudy
9:20 AM37.4 °F24.8 °F60 %29.92 in6.2 miESE (120°)10.4 mphMostly Cloudy
9:50 AM37.4 °F24.8 °F60 %29.95 in6.2 miESE (110°)11.5 mphMostly Cloudy
10:20 AM37.4 °F26.6 °F65 %29.95 in6.2 miESE (110°)11.5 mph23.0 mphMostly Cloudy
10:50 AM37.4 °F26.6 °F65 %29.95 in6.2 miEast (100°)15.0 mphMostly Cloudy
11:20 AM37.4 °F24.8 °F60 %29.95 in6.2 miESE (110°)13.8 mphMostly Cloudy
11:50 AM39.2 °F24.8 °F56 %29.95 in6.2 miESE (110°)15.0 mphMostly Cloudy
12:20 PM39.2 °F24.8 °F56 %29.95 in6.2 miESE (110°)12.7 mphMostly Cloudy
12:50 PM39.2 °F26.6 °F61 %29.95 in6.2 miESE (110°)16.1 mphMostly Cloudy
1:20 PM39.2 °F24.8 °F56 %29.95 in6.2 miESE (110°)17.3 mphMostly Cloudy
1:50 PM39.2 °F24.8 °F56 %29.95 in6.2 miESE (110°)15.0 mphMostly Cloudy
2:20 PM39.2 °F26.6 °F61 %29.95 in6.2 miESE (110°)17.3 mphMostly Cloudy
2:50 PM39.2 °F26.6 °F61 %29.95 in6.2 miESE (110°)15.0 mphMostly Cloudy
3:20 PM39.2 °F24.8 °F56 %29.95 in6.2 miESE (110°)16.1 mphMostly Cloudy
3:50 PM39.2 °F24.8 °F56 %29.95 in6.2 miESE (110°)15.0 mphMostly Cloudy
4:20 PM41.0 °F24.8 °F53 %29.95 in6.2 miESE (120°)17.3 mphScattered Clouds
4:50 PM41.0 °F24.8 °F53 %29.95 in6.2 miESE (120°)15.0 mphScattered Clouds
5:20 PM41.0 °F24.8 °F53 %29.95 in6.2 miESE (110°)12.7 mphScattered Clouds
5:50 PM41.0 °F24.8 °F53 %29.95 in6.2 miESE (110°)15.0 mphScattered Clouds
6:20 PM41.0 °F24.8 °F53 %29.95 in6.2 miEast (100°)13.8 mphScattered Clouds
6:50 PM41.0 °F24.8 °F53 %29.95 in6.2 miEast (100°)12.7 mphScattered Clouds
7:20 PM41.0 °F24.8 °F53 %29.95 in6.2 miESE (110°)11.5 mphPartly Cloudy
7:50 PM39.2 °F26.6 °F61 %29.95 in6.2 miEast (90°)8.1 mphPartly Cloudy
8:20 PM39.2 °F26.6 °F61 %29.98 in6.2 miEast (100°)9.2 mphPartly Cloudy
8:50 PM39.2 °F26.6 °F61 %29.98 in6.2 miEast (100°)6.9 mphScattered Clouds
Hourly data recorded from EGAC, located miles away from Belfast, Northern Ireland







STORIES FROM OUR PARTNERS